Miscellaneous Local Product
Issued by NWS North Platte, NE

Home | Current Version | Previous Version | Text Only | Print | Product List | Glossary On
Versions: 1 2 3 4 5 6 7 8 9 10 11 12 13 14 15 16 17 18 19 20 21 22 23 24 25 26 27 28 29 30 31 32 33 34 35 36 37 38 39 40 41 42 43 44 45 46 47 48 49 50
411
AXUS43 KLBF 231310
MISLBF


WESTERN AND NORTH CENTRAL NEBRASKA HOURLY WEATHER ROUNDUP
NATIONAL WEATHER SERVICE NORTH PLATTE NE
800 AM CDT TUE MAY 23 2017

NOTE: "FAIR" INDICATES FEW OR NO CLOUDS BELOW 12,000 FEET WITH NO
SIGNIFICANT WEATHER AND/OR OBSTRUCTIONS TO VISIBILITY.

NOTE: STATIONS NOT REPORTING VARIABLES SUCH AS SKY/WEATHER OR
PRESSURE ARE PROVIDED BY RAWS AND APRS NETWORKS AND ARE NOT UNDER
NATIONAL WEATHER SERVICE QUALITY CONTROL.

...OBSERVATIONS IN AND NEAR THE EASTERN PANHANDLE OF NEBRASKA...

CITY           SKY/WX    TMP DP  RH WIND       PRES   REMARKS
PINE RIDGE     CLOUDY    45  41  86 NW7       30.13R
GORDON         CLOUDY    47  40  78 NW10      30.11R
CHADRON        CLOUDY    45  39  79 NW10      30.15R
ALLIANCE       CLOUDY    44  39  82 NW15      30.12S
SIDNEY         CLOUDY    43  40  89 NW14      30.16R
CRESCENT LAKE    N/A     41  38  89 NW9G17      N/A
$$

...OBSERVATIONS IN NORTHERN NEBRASKA AND FAR SOUTHERN SOUTH DAKOTA...

CITY           SKY/WX    TMP DP  RH WIND       PRES   REMARKS
WINNER         CLOUDY    50  42  74 NW13      30.01S
VALENTINE      SUNNY     50  39  66 N14       30.05R
THEDFORD       CLOUDY    49  44  81 NW16      30.05R
AINSWORTH      CLOUDY    48  41  76 N21G26    30.03R
O`NEILL        CLOUDY    50  43  76 N18G25    29.97R
ORD            CLOUDY    50  42  74 NW10      29.96S
BROKEN BOW     CLOUDY    50  43  77 NW17      29.99F
VALENTINE NWR    N/A     47  42  82 N13G20      N/A
HALSEY           N/A     47  43  85 W9          N/A
BUTTE            N/A     48  42  80 N20G26      N/A
CHAMBERS         N/A     51  44  76 MISG        N/A
EWING            N/A     49  46  90 W5          N/A
$$

...OBSERVATIONS IN SOUTHWEST NEBRASKA AND FAR NORTHEAST COLORADO...

CITY           SKY/WX    TMP DP  RH WIND       PRES   REMARKS
WRAY           FAIR      45  37  76 NW13G23   30.14S
IMPERIAL       CLOUDY    46  39  76 NW15      30.10S
OGALLALA       CLOUDY    47  40  78 NW17      30.11R
NORTH PLATTE   CLOUDY    47  44  90 W9        30.06S
MCCOOK         CLOUDY    47  43  86 NW14      30.06F
LEXINGTON      CLOUDY    46  43  87 NW13      30.03F
STAPLETON        N/A     47  43  85 CALM        N/A
GOTHENBURG       N/A     44  40  85 W5          N/A
CALLAWAY         N/A     43  41  93 NW9         N/A
$$

...OBSERVATIONS IN CENTRAL LINCOLN COUNTY AREA...

CITY           SKY/WX    TMP DP  RH WIND       PRES   REMARKS
N.P. AIRPORT   CLOUDY    47  44  90 W9        30.06S
N.P. DOWNTOWN    N/A     47  44  89 W3          N/A
N.P. SOUTHEAST   N/A     46  42  86 W3          N/A
N.P. HILLCREST   N/A     47  44  91 NW8         N/A
$$

...SOME OBSERVATIONS FROM AROUND THE REGION...

CITY           SKY/WX    TMP DP  RH WIND       PRES   REMARKS
DENVER         CLOUDY    44  37  76 W6        30.22R
LIMON          SUNNY     42  36  79 NW15      30.20R
ASPEN          MOSUNNY   34  32  92 CALM      30.32R
LARAMIE        CLOUDY    35  30  82 NW10      30.25S WCI  27
CASPER         SUNNY     40  38  93 W7        30.25S
CHEYENNE       CLOUDY    41  34  76 NW16G23   30.22R
SCOTTSBLUFF    CLOUDY    42  38  85 W8        30.17R
GRAND ISLAND   CLOUDY    48  45  89 W9        29.98F
OMAHA          PTSUNNY   53  43  68 NW12      29.92R
SIOUX FALLS    LGT RAIN  49  45  86 N10       29.89S
PIERRE         LGT RAIN  49  40  71 N15       30.02R
RAPID CITY     CLOUDY    48  39  71 N12       30.14S
BISMARCK       CLOUDY    53  37  54 N13G23    30.08R
KANSAS CITY    LGT RAIN  53  51  93 N10       29.88S
HILL CITY      SUNNY     49  44  83 NW13      30.07R
WICHITA        PTSUNNY   54  50  86 N14       29.97R
DODGE CITY     MOSUNNY   48  44  86 NW15G23   30.07S
OKLAHOMA CITY  PTSUNNY   56  53  90 NW21G28   29.92R
DALLAS         PTSUNNY   67  63  87 S3        29.88R
AMARILLO       CLOUDY    49  43  80 N12       30.13S
$$




USA.gov is the U.S. government's official web portal to all federal, state and local government web resources and services.